IBE0604 LEMD-LEZL

Flight info

Callsign IBE0604
Flight time 0h 48m
Altitude 31000
Route VTB N10 HIJ
Aircraft A320/M-SDE3FGHIRWY/LB1

Departure

Time 2026-03-24 10:11
Airport Adolfo Suárez Madrid–Barajas Airport (LEMD)

Arrival

Time 2026-03-24 10:59
Airport Seville Airport (LEZL)
Time Latitude Longitude Altitude Speed Heading
2026-03-24 09:48 40.49713 -3.56354 1927 ft 0 kts 269°
2026-03-24 10:08 40.49713 -3.56356 1928 ft 1 kts 269°
2026-03-24 10:08 40.49712 -3.56381 1929 ft 4 kts 269°
2026-03-24 10:08 40.49715 -3.56432 1929 ft 5 kts 292°
2026-03-24 10:08 40.49752 -3.56456 1929 ft 6 kts 355°
2026-03-24 10:09 40.49808 -3.56459 1928 ft 9 kts 358°
2026-03-24 10:09 40.49877 -3.56460 1928 ft 10 kts
2026-03-24 10:09 40.49936 -3.56423 1927 ft 9 kts 63°
2026-03-24 10:09 40.49939 -3.56325 1925 ft 12 kts 90°
2026-03-24 10:10 40.49939 -3.56201 1923 ft 15 kts 89°
2026-03-24 10:10 40.49945 -3.56053 1918 ft 17 kts 72°
2026-03-24 10:10 40.50042 -3.55950 1916 ft 18 kts 13°
2026-03-24 10:10 40.50176 -3.55924 1917 ft 22 kts
2026-03-24 10:11 40.50522 -3.55924 1918 ft 88 kts
2026-03-24 10:11 40.51386 -3.55921 1920 ft 157 kts
2026-03-24 10:11 40.52566 -3.55892 2429 ft 178 kts
2026-03-24 10:11 40.53807 -3.55898 3263 ft 181 kts
2026-03-24 10:12 40.55042 -3.55883 4166 ft 180 kts
2026-03-24 10:12 40.56333 -3.55870 4792 ft 194 kts
2026-03-24 10:12 40.57750 -3.55860 5322 ft 213 kts
2026-03-24 10:12 40.59259 -3.55929 5979 ft 224 kts 359°
2026-03-24 10:13 40.60819 -3.55616 6704 ft 234 kts 17°
2026-03-24 10:13 40.62373 -3.54981 7608 ft 237 kts 18°
2026-03-24 10:13 40.63931 -3.54290 8450 ft 242 kts 25°
2026-03-24 10:13 40.65279 -3.52954 9154 ft 252 kts 51°
2026-03-24 10:14 40.66224 -3.51024 10023 ft 256 kts 58°
2026-03-24 10:14 40.67350 -3.49251 10855 ft 259 kts 33°
2026-03-24 10:14 40.69012 -3.48181 11401 ft 275 kts 30°
2026-03-24 10:14 40.70589 -3.46599 11784 ft 295 kts 45°
2026-03-24 10:15 40.72008 -3.44522 12152 ft 314 kts 50°
2026-03-24 10:15 40.73266 -3.42104 12460 ft 332 kts 63°
2026-03-24 10:15 40.74010 -3.39132 12721 ft 351 kts 79°
2026-03-24 10:15 40.74088 -3.35887 12978 ft 368 kts 95°
2026-03-24 10:16 40.73394 -3.32617 13452 ft 378 kts 113°
2026-03-24 10:16 40.71908 -3.29721 14018 ft 387 kts 132°
2026-03-24 10:16 40.69736 -3.27560 14605 ft 395 kts 151°
2026-03-24 10:16 40.67108 -3.26449 15133 ft 404 kts 171°
2026-03-24 10:17 40.64279 -3.26584 15622 ft 413 kts 191°
2026-03-24 10:17 40.61546 -3.27805 16075 ft 420 kts 201°
2026-03-24 10:17 40.58796 -3.28945 16567 ft 422 kts 190°
2026-03-24 10:17 40.55895 -3.29573 17060 ft 424 kts 187°
2026-03-24 10:18 40.52953 -3.30111 17528 ft 428 kts 186°
2026-03-24 10:18 40.49971 -3.30634 17946 ft 433 kts 186°
2026-03-24 10:18 40.46997 -3.31146 18395 ft 436 kts 186°
2026-03-24 10:18 40.43990 -3.31657 18846 ft 439 kts 185°
2026-03-24 10:19 40.40924 -3.32176 19266 ft 442 kts 185°
2026-03-24 10:19 40.37867 -3.32690 19666 ft 446 kts 185°
2026-03-24 10:19 40.34794 -3.33206 20080 ft 449 kts 185°
2026-03-24 10:19 40.31701 -3.33725 20506 ft 451 kts 185°
2026-03-24 10:20 40.28576 -3.34247 20872 ft 455 kts 185°
2026-03-24 10:20 40.25456 -3.34788 21255 ft 458 kts 186°
2026-03-24 10:20 40.22304 -3.35532 21616 ft 462 kts 188°
2026-03-24 10:20 40.19120 -3.36321 21964 ft 466 kts 187°
2026-03-24 10:21 40.15928 -3.37108 22346 ft 468 kts 187°
2026-03-24 10:21 40.12722 -3.37898 22685 ft 471 kts 187°
2026-03-24 10:21 40.09518 -3.38686 23043 ft 473 kts 187°
2026-03-24 10:21 40.06287 -3.39481 23368 ft 476 kts 187°
2026-03-24 10:22 40.02989 -3.40292 23690 ft 479 kts 187°
2026-03-24 10:22 39.99723 -3.41094 23992 ft 482 kts 187°
2026-03-24 10:22 39.96433 -3.41901 24314 ft 484 kts 187°
2026-03-24 10:22 39.93115 -3.42715 24689 ft 486 kts 187°
2026-03-24 10:23 39.89767 -3.43535 25004 ft 488 kts 186°
2026-03-24 10:23 39.86457 -3.44344 25262 ft 491 kts 186°
2026-03-24 10:23 39.83081 -3.45169 25570 ft 493 kts 186°
2026-03-24 10:23 39.79691 -3.45997 25835 ft 496 kts 186°
2026-03-24 10:24 39.76333 -3.46941 26118 ft 501 kts 192°
2026-03-24 10:24 39.73051 -3.48553 26395 ft 509 kts 203°
2026-03-24 10:24 39.69981 -3.50957 26687 ft 516 kts 214°
2026-03-24 10:24 39.67295 -3.54045 26918 ft 520 kts 226°
2026-03-24 10:25 39.65069 -3.57747 27221 ft 522 kts 238°
2026-03-24 10:25 39.63369 -3.61894 27548 ft 522 kts 246°
2026-03-24 10:25 39.61836 -3.66114 27881 ft 522 kts 242°
2026-03-24 10:25 39.59890 -3.70025 28265 ft 520 kts 230°
2026-03-24 10:26 39.57458 -3.73498 28535 ft 521 kts 224°
2026-03-24 10:26 39.54897 -3.76856 28810 ft 522 kts 223°
2026-03-24 10:26 39.52354 -3.80169 29143 ft 521 kts 223°
2026-03-24 10:26 39.49805 -3.83490 29533 ft 520 kts 223°
2026-03-24 10:27 39.47253 -3.86814 29876 ft 520 kts 223°
2026-03-24 10:27 39.44714 -3.90120 30182 ft 520 kts 223°
2026-03-24 10:27 39.42173 -3.93425 30459 ft 522 kts 223°
2026-03-24 10:27 39.39633 -3.96725 30826 ft 520 kts 223°
2026-03-24 10:28 39.37066 -4.00057 31110 ft 519 kts 222°
2026-03-24 10:28 39.31988 -4.06638 31174 ft 517 kts 222°
2026-03-24 10:29 39.26942 -4.13162 31175 ft 517 kts 222°
2026-03-24 10:29 39.21854 -4.19728 31177 ft 519 kts 222°
2026-03-24 10:30 39.16743 -4.26307 31176 ft 522 kts 222°
2026-03-24 10:30 39.11601 -4.32915 31170 ft 520 kts 223°
2026-03-24 10:31 39.06488 -4.39470 31163 ft 520 kts 222°
2026-03-24 10:31 39.01374 -4.46012 31148 ft 519 kts 222°
2026-03-24 10:32 38.96274 -4.52521 31139 ft 520 kts 222°
2026-03-24 10:32 38.91133 -4.59070 31139 ft 520 kts 222°
2026-03-24 10:33 38.86028 -4.65558 31136 ft 520 kts 221°
2026-03-24 10:33 38.80884 -4.72083 31141 ft 520 kts 221°
2026-03-24 10:34 38.75758 -4.78572 31137 ft 520 kts 221°
2026-03-24 10:34 38.70623 -4.85058 31141 ft 520 kts 221°
2026-03-24 10:35 38.65476 -4.91550 31146 ft 521 kts 221°
2026-03-24 10:35 38.60322 -4.98048 31153 ft 521 kts 221°
2026-03-24 10:36 38.55132 -5.04520 31162 ft 522 kts 220°
2026-03-24 10:36 38.49889 -5.10945 31154 ft 521 kts 217°
2026-03-24 10:37 38.44436 -5.16970 31156 ft 522 kts 216°
2026-03-24 10:37 38.38962 -5.23010 31154 ft 522 kts 217°
2026-03-24 10:38 38.33505 -5.29018 30818 ft 518 kts 217°
2026-03-24 10:38 38.30758 -5.32036 30145 ft 518 kts 217°
2026-03-24 10:38 38.28028 -5.35031 29300 ft 522 kts 217°
2026-03-24 10:38 38.25308 -5.38012 28522 ft 524 kts 217°
2026-03-24 10:39 38.22535 -5.41050 27880 ft 522 kts 217°
2026-03-24 10:39 38.19804 -5.44038 27168 ft 521 kts 218°
2026-03-24 10:39 38.17083 -5.47012 26506 ft 519 kts 218°
2026-03-24 10:40 38.11617 -5.52976 25101 ft 517 kts 218°
2026-03-24 10:40 38.08908 -5.55927 24345 ft 514 kts 218°
2026-03-24 10:40 38.06226 -5.58848 23920 ft 506 kts 218°
2026-03-24 10:40 38.03579 -5.61726 23422 ft 499 kts 218°
2026-03-24 10:41 38.00969 -5.64562 22827 ft 494 kts 218°
2026-03-24 10:41 37.98363 -5.67390 22232 ft 489 kts 217°
2026-03-24 10:41 37.95815 -5.70152 21650 ft 483 kts 218°
2026-03-24 10:41 37.93270 -5.72908 20985 ft 480 kts 218°
2026-03-24 10:42 37.90762 -5.75622 20532 ft 471 kts 218°
2026-03-24 10:42 37.88282 -5.78303 19910 ft 467 kts 218°
2026-03-24 10:42 37.85823 -5.80958 19319 ft 461 kts 218°
2026-03-24 10:42 37.83396 -5.83578 18727 ft 456 kts 218°
2026-03-24 10:43 37.81025 -5.86135 18099 ft 452 kts 218°
2026-03-24 10:43 37.76297 -5.91226 16961 ft 440 kts 219°
2026-03-24 10:43 37.73962 -5.93737 16257 ft 438 kts 219°
2026-03-24 10:44 37.71688 -5.96180 15673 ft 432 kts 219°
2026-03-24 10:44 37.69400 -5.98636 15113 ft 427 kts 219°
2026-03-24 10:44 37.67143 -6.01058 14446 ft 423 kts 219°
2026-03-24 10:44 37.65027 -6.03543 13899 ft 408 kts 224°
2026-03-24 10:45 37.63016 -6.05949 13580 ft 392 kts 219°
2026-03-24 10:45 37.60948 -6.08009 13308 ft 374 kts 214°
2026-03-24 10:45 37.58804 -6.09793 13033 ft 357 kts 209°
2026-03-24 10:45 37.56677 -6.11262 12817 ft 339 kts 204°
2026-03-24 10:46 37.54598 -6.12443 12599 ft 324 kts 200°
2026-03-24 10:46 37.52508 -6.13411 12312 ft 312 kts 195°
2026-03-24 10:46 37.50452 -6.14163 11860 ft 307 kts 192°
2026-03-24 10:46 37.48370 -6.14733 11359 ft 305 kts 187°
2026-03-24 10:47 37.46287 -6.15116 10879 ft 301 kts 183°
2026-03-24 10:47 37.44214 -6.15207 10365 ft 299 kts 180°
2026-03-24 10:47 37.42163 -6.15396 9896 ft 297 kts 183°
2026-03-24 10:47 37.40111 -6.15624 9418 ft 295 kts 183°
2026-03-24 10:48 37.38059 -6.15855 8956 ft 292 kts 182°
2026-03-24 10:48 37.36060 -6.15816 8451 ft 287 kts 163°
2026-03-24 10:48 37.34306 -6.14791 7938 ft 279 kts 137°
2026-03-24 10:48 37.33135 -6.12929 7458 ft 268 kts 110°
2026-03-24 10:49 37.32807 -6.10704 7018 ft 260 kts 84°
2026-03-24 10:49 37.33119 -6.08486 6530 ft 258 kts 69°
2026-03-24 10:49 37.34062 -6.06614 6088 ft 255 kts 49°
2026-03-24 10:49 37.35271 -6.04967 5575 ft 257 kts 47°
2026-03-24 10:50 37.36559 -6.03407 5041 ft 259 kts 35°
2026-03-24 10:50 37.38238 -6.02628 4737 ft 255 kts 11°
2026-03-24 10:50 37.39958 -6.02400 4558 ft 244 kts
2026-03-24 10:50 37.41617 -6.02101 4315 ft 235 kts 23°
2026-03-24 10:51 37.42902 -6.00894 3680 ft 241 kts 58°
2026-03-24 10:51 37.43361 -5.98890 3096 ft 247 kts 93°
2026-03-24 10:51 37.42933 -5.96783 2632 ft 247 kts 103°
2026-03-24 10:51 37.42401 -5.94815 2528 ft 233 kts 122°
2026-03-24 10:52 37.41238 -5.93515 2517 ft 219 kts 156°
2026-03-24 10:52 37.39764 -5.93277 2513 ft 216 kts 191°
2026-03-24 10:52 37.38455 -5.94148 2513 ft 220 kts 226°
2026-03-24 10:52 37.37753 -5.95848 2512 ft 222 kts 261°
2026-03-24 10:53 37.37634 -5.97774 2514 ft 219 kts 268°
2026-03-24 10:53 37.37572 -5.99677 2510 ft 218 kts 268°
2026-03-24 10:53 37.37505 -6.01593 2509 ft 218 kts 268°
2026-03-24 10:53 37.37438 -6.03494 2508 ft 218 kts 268°
2026-03-24 10:54 37.37371 -6.05354 2512 ft 211 kts 268°
2026-03-24 10:54 37.37304 -6.07165 2512 ft 203 kts 268°
2026-03-24 10:54 37.37239 -6.08926 2509 ft 201 kts 269°
2026-03-24 10:54 37.37552 -6.10607 2514 ft 199 kts 306°
2026-03-24 10:55 37.38583 -6.11684 2514 ft 195 kts 345°
2026-03-24 10:55 37.39894 -6.11841 2514 ft 189 kts 21°
2026-03-24 10:55 37.40926 -6.10868 2511 ft 186 kts 57°
2026-03-24 10:55 37.41479 -6.09420 2509 ft 184 kts 74°
2026-03-24 10:56 37.41703 -6.07845 2509 ft 185 kts 86°
2026-03-24 10:56 37.41745 -6.06210 2373 ft 187 kts 89°
2026-03-24 10:56 37.41760 -6.04581 2169 ft 185 kts 90°
2026-03-24 10:56 37.41761 -6.03023 1947 ft 172 kts 90°
2026-03-24 10:57 37.41764 -6.01565 1686 ft 164 kts 90°
2026-03-24 10:57 37.41767 -6.00169 1471 ft 154 kts 89°
2026-03-24 10:57 37.41769 -5.98914 1305 ft 136 kts 89°
2026-03-24 10:57 37.41773 -5.97761 1121 ft 129 kts 90°
2026-03-24 10:58 37.41773 -5.96623 953 ft 130 kts 90°
2026-03-24 10:58 37.41779 -5.95485 785 ft 131 kts 90°
2026-03-24 10:58 37.41781 -5.94337 616 ft 131 kts 90°
2026-03-24 10:58 37.41786 -5.93191 443 ft 131 kts 89°
2026-03-24 10:59 37.41783 -5.92047 283 ft 130 kts 92°
2026-03-24 10:59 37.41791 -5.90905 93 ft 127 kts 89°
2026-03-24 10:59 37.41791 -5.89968 88 ft 68 kts 89°
2026-03-24 10:59 37.41796 -5.89501 88 ft 33 kts 87°
2026-03-24 11:00 37.41798 -5.89288 88 ft 15 kts 73°
2026-03-24 11:00 37.41879 -5.89283 90 ft 14 kts 328°
2026-03-24 11:00 37.41971 -5.89349 91 ft 15 kts 330°
2026-03-24 11:00 37.42053 -5.89435 91 ft 15 kts 311°
2026-03-24 11:01 37.42130 -5.89541 92 ft 13 kts 313°
2026-03-24 11:01 37.42175 -5.89611 92 ft 2 kts 270°
2026-03-24 11:01 37.42141 -5.89679 92 ft 14 kts 223°
2026-03-24 11:01 37.42095 -5.89737 92 ft 1 kts 268°
2026-03-24 11:02 37.42110 -5.89760 92 ft 10 kts 317°
2026-03-24 11:02 37.42137 -5.89794 92 ft 0 kts 314°